[[{"header":{"parameterUnit":"m.s-1","parameterCategory":2,"la1":30.2991,"la2":30.254,"lo1":-89.0895,"lo2":-89.0444,"dy":0.0017,"dx":0.0017,"nx":28,"ny":28,"refTime":"2024-08-30T09:00:00:Z","depth":"0","parameterNumber":2,"parameterNumberName":"U-component_of_CURRENTS"},"data":[0,0,0,0,0,0,0,0,0,0,0,0,0,0,0,0,0,0,0,0,0,0,0,0,0,0,0,0,0,0,0,0,0,0,0,0,0,0,0,0,0,0,0,0,0,0,0,0,0,0,0,0,0,0,0,0,0,0,0.3361,0.3362,0,0.3398,0.3398,0.3398,0.3388,0.3387,0.3387,0.3387,0.3375,0.3375,0.3376,0,0,0,0,0,0,0,0,0,0,0,0,0,0.3275,0.3277,0.3361,0.3362,0.3363,0.3398,0.3398,0.3399,0.3388,0.3387,0.3387,0.3386,0.3375,0.3375,0.3376,0,0,0,0,0,0,0,0,0,0,0,0,0,0.3309,0.3277,0.3361,0.3365,0.3366,0.3398,0.3398,0.3399,0.3388,0.3387,0.3387,0.3386,0.3375,0.3375,0.3376,0.3388,0,0,0.3376,0.3376,0,0,0,0,0,0,0,0,0.3307,0.3311,0.3363,0.3365,0.3366,0.3391,0.3364,0.3394,0.3388,0.3375,0.3387,0.3386,0.3379,0.3379,0.3382,0.3387,0.3387,0.3376,0.3376,0.3376,0.3376,0,0,0,0,0,0,0,0.3304,0.331,0.3372,0.3365,0.3366,0.3363,0.3367,0.337,0.3376,0.3376,0.3377,0.3387,0.3379,0.3382,0.3382,0.3387,0.3376,0.3376,0.3376,0.3376,0.3443,0.3444,0,0,0,0,0,0,0.3309,0.3308,0.3371,0.3373,0.3339,0.3365,0.3369,0.338,0.3377,0.3378,0.3388,0.3387,0.3382,0.3382,0.3381,0.3433,0.3376,0.3376,0.3376,0.3441,0.3443,0.3445,0,0,0,0,0,0,0.3307,0.3315,0.3369,0.3344,0.3352,0.3368,0.338,0.3382,0.339,0.3387,0.3386,0.3396,0.3382,0.3381,0.3401,0.3431,0.3376,0.3376,0.3439,0.3442,0.3444,0.3512,0,0,0,0,0,0,0.3305,0.3314,0.3323,0.3345,0.3353,0.3398,0.3381,0.3383,0.3399,0.3398,0.3394,0.3392,0.3381,0.3401,0.3401,0.343,0.3376,0.3437,0.344,0.3443,0.3508,0.3517,0.3525,0,0,0,0,0,0.3301,0.3315,0.3323,0.3331,0.3365,0.3399,0.3403,0.341,0.34,0.3412,0.3413,0.3392,0.3421,0.3402,0.3402,0.3432,0.3435,0.3439,0.3443,0.3504,0.3515,0.3525,0,0,0,0,0,0,0.3276,0.3316,0.3325,0.3348,0.3378,0.3399,0.3413,0.3416,0.3426,0.3424,0.3411,0.3411,0.3443,0.3429,0.3408,0.3462,0.3426,0.343,0.3473,0.3483,0.3491,0.3506,0.3376,0,0,0,0,0,0.3278,0.3302,0.3338,0.3358,0.3376,0.3396,0.3409,0.3418,0.3432,0.3436,0.3435,0.344,0.3459,0.3463,0.3474,0.3497,0.3508,0.3518,0.3526,0.3534,0.3547,0.3598,0.3612,0.3458,0.3458,0.3458,0,0,0.3271,0.33,0.331,0.3355,0.3376,0.341,0.3401,0.3431,0.3456,0.3433,0.3461,0.347,0.3474,0.3509,0.3521,0.3498,0.3585,0.3538,0.3544,0.3554,0.3603,0.3618,0.3632,0.346,0.346,0.3459,0,0,0.3275,0.33,0.3323,0.3356,0.3401,0.3421,0.3433,0.3464,0.3477,0.3509,0.3508,0.3539,0.3549,0.3571,0.358,0.3641,0.3632,0.3641,0.369,0.3739,0.3752,0.3764,0.3801,0.3816,0.3639,0.364,0.364,0,0.3265,0.33,0.3334,0.3371,0.3396,0.3429,0.3457,0.3487,0.3519,0.3541,0.3525,0.3584,0.3584,0.3644,0.367,0.3661,0.3683,0.3649,0.375,0.3762,0.3773,0.3809,0.3824,0.3643,0.3643,0.3642,0.3642,0,0.329,0.3321,0.3341,0.3399,0.3431,0.3463,0.3513,0.3551,0.3568,0.3595,0.3654,0.3668,0.3703,0.3713,0.371,0.3793,0.3782,0.3759,0.3724,0.3793,0.3826,0.384,0.3649,0.3647,0.3646,0.3645,0,0,0.3252,0.3339,0.3344,0.3377,0.3446,0.3477,0.3538,0.3602,0.365,0.3685,0.3743,0.3789,0.3803,0.3816,0.3822,0.3867,0.3964,0.3851,0.3852,0.3888,0.4075,0.4076,0.4092,0.3961,0.3963,0.3966,0.4069,0,0.3257,0.332,0.3361,0.3421,0.3458,0.3517,0.3573,0.3639,0.3689,0.3759,0.3801,0.3855,0.384,0.3865,0.3914,0.3956,0.4005,0.3938,0.4004,0.4006,0.3999,0.411,0.4031,0.4118,0.4083,0.4085,0.4087,0,0.3258,0.3306,0.3355,0.3444,0.3465,0.351,0.361,0.3667,0.3778,0.3817,0.3887,0.392,0.4008,0.3975,0.4089,0.4049,0.4075,0.4098,0.4102,0.4091,0.4035,0.4043,0.4145,0.4069,0.4109,0.4107,0.4106,0,0.3207,0.3297,0.3333,0.3363,0.347,0.3512,0.3576,0.3684,0.3727,0.3864,0.3905,0.401,0.4063,0.4125,0.4181,0.4144,0.4301,0.4245,0.427,0.4269,0.421,0.4199,0.4245,0.433,0.4329,0.4329,0.4329,0,0.3187,0.3217,0.332,0.3342,0.3395,0.3494,0.3556,0.3644,0.3756,0.3828,0.3929,0.4011,0.4106,0.4198,0.423,0.4317,0.4341,0.4316,0.4314,0.4231,0.4222,0.4156,0.4095,0.4333,0.4332,0.4331,0.4331,0,0.3115,0.3179,0.3223,0.3335,0.3365,0.3407,0.3509,0.3567,0.3693,0.3794,0.3838,0.4022,0.4178,0.4256,0.4383,0.438,0.4353,0.4468,0.4367,0.4352,0.4282,0.4227,0.409,0.3962,0.4514,0.4515,0.4516,0,0.3079,0.3099,0.3182,0.3201,0.3247,0.332,0.3366,0.3505,0.3576,0.3807,0.3861,0.4058,0.4189,0.4385,0.4466,0.4547,0.4391,0.4487,0.4402,0.4309,0.4246,0.4031,0.3915,0.4347,0.4347,0.4346,0.4346,0,0.301,0.3034,0.3071,0.311,0.3155,0.319,0.3291,0.3323,0.3521,0.3629,0.3826,0.3959,0.4225,0.4332,0.4471,0.4504,0.4299,0.4478,0.441,0.4164,0.3903,0.3768,0.4239,0.4341,0.4341,0.4342,0.4342,0.4342,0.2944,0.2943,0.299,0.301,0.3046,0.3067,0.3062,0.3197,0.3292,0.3454,0.3697,0.3868,0.4159,0.4376,0.4374,0.438,0.4277,0.4295,0.4251,0.4053,0.388,0.4348,0.4426,0.4427,0.4428,0.4428,0.4429,0,0.2867,0.2879,0.2894,0.2906,0.2885,0.2947,0.3004,0.2997,0.307,0.3323,0.348,0.3793,0.3964,0.4148,0.432,0.4199,0.3949,0.4087,0.3774,0.3681,0.4158,0.4105,0.4082,0.4082,0.4082,0.4082,0.4082,0.4082,0.2836,0.2815,0.2813,0.2741,0.274,0.2679,0.2674,0.2704,0.2845,0.3028,0.3227,0.3449,0.3869,0.4167,0.417,0.4064,0.3712,0.3571,0.3484,0.3868,0.3883,0.3897,0.3835,0.3756,0.3755,0.2878,0.2872,0.2867]},{"header":{"parameterUnit":"m.s-1","parameterCategory":2,"la1":30.2991,"la2":30.254,"lo1":-89.0895,"lo2":-89.0444,"dy":0.0017,"dx":0.0017,"nx":28,"ny":28,"refTime":"2024-08-30T09:00:00:Z","depth":"0","parameterNumber":3,"parameterNumberName":"V-component_of_CURRENTS"},"data":[0,0,0,0,0,0,0,0,0,0,0,0,0,0,0,0,0,0,0,0,0,0,0,0,0,0,0,0,0,0,0,0,0,0,0,0,0,0,0,0,0,0,0,0,0,0,0,0,0,0,0,0,0,0,0,0,0,0,0.0152,0.0152,0,0.0068,0.0067,0.0066,0.001,0.001,0.001,0.001,-0.011,-0.0113,-0.0116,0,0,0,0,0,0,0,0,0,0,0,0,0,0.0208,0.0207,0.0153,0.0152,0.0151,0.0068,0.0067,0.0065,0.001,0.001,0.001,0.001,-0.0109,-0.0112,-0.0116,0,0,0,0,0,0,0,0,0,0,0,0,0,0.0158,0.0207,0.0153,0.0115,0.011,0.0068,0.0067,0.0065,0.001,0.001,0.001,0.001,-0.0108,-0.0112,-0.0116,-0.0138,0,0,-0.013,-0.0132,0,0,0,0,0,0,0,0,0.0161,0.0156,0.0121,0.0117,0.0112,0.0051,0.0042,-0.0004,0.001,0.0047,0.001,0.0009,-0.0058,-0.0067,-0.0084,-0.0144,-0.0149,-0.0131,-0.0133,-0.0135,-0.0136,0,0,0,0,0,0,0,0.0164,0.0159,0.0117,0.012,0.0115,0.0081,0.0074,0.0033,-0.0005,0.0043,0.004,0.0033,-0.0061,-0.0079,-0.0087,-0.0151,-0.013,-0.0134,-0.0137,-0.0139,-0.0242,-0.0242,0,0,0,0,0,0,0.0182,0.0162,0.012,0.0115,0.0138,0.0081,0.0073,0.007,-0.0004,-0.0015,0.0033,0.0031,-0.0071,-0.0082,-0.0091,-0.0112,-0.0135,-0.0139,-0.0142,-0.0242,-0.0242,-0.0242,0,0,0,0,0,0,0.0183,0.0179,0.0123,0.0138,0.0129,0.0081,0.0077,0.0068,0.0052,-0.0011,-0.0023,0.0027,-0.0072,-0.0085,-0.0126,-0.0118,-0.0141,-0.0145,-0.0242,-0.0242,-0.0242,-0.016,0,0,0,0,0,0,0.0185,0.018,0.0184,0.0139,0.0129,0.0108,0.0077,0.0067,0.0049,0.0044,-0.002,-0.0032,-0.0073,-0.0119,-0.013,-0.0124,-0.0149,-0.0242,-0.0242,-0.0242,-0.0163,-0.0157,-0.0152,0,0,0,0,0,0.0188,0.0199,0.0185,0.018,0.0136,0.0109,0.01,0.0064,0.0049,0.0047,0.0,-0.003,-0.0127,-0.0122,-0.0136,-0.0131,-0.0242,-0.0242,-0.0242,-0.0165,-0.0158,-0.0153,0,0,0,0,0,0,0.0226,0.0193,0.0177,0.0178,0.0149,0.01,0.0097,0.007,0.0032,0.0029,-0.0032,-0.0047,-0.0078,-0.0119,-0.0111,-0.0162,-0.0189,-0.0192,-0.0126,-0.012,-0.0115,-0.008,-0.0153,0,0,0,0,0,0.0237,0.0237,0.0197,0.0199,0.0189,0.0144,0.0129,0.0105,0.0066,0.0049,0.0003,-0.0047,-0.009,-0.0115,-0.0157,-0.0186,-0.0217,-0.0193,-0.0188,-0.0183,-0.0164,-0.0213,-0.021,-0.0243,-0.0243,-0.0243,0,0,0.0252,0.0235,0.0234,0.0207,0.0183,0.018,0.0134,0.0121,0.0116,0.0041,0.0022,-0.0029,-0.0093,-0.0124,-0.0142,-0.0157,-0.019,-0.0183,-0.0179,-0.0162,-0.0213,-0.0209,-0.0206,-0.0243,-0.0243,-0.0243,0,0,0.029,0.0269,0.0283,0.0265,0.0238,0.0211,0.0211,0.0167,0.0146,0.0117,0.0064,0.0018,-0.0045,-0.0091,-0.0122,-0.0117,-0.0159,-0.0131,-0.0079,-0.0127,-0.0124,-0.0122,-0.0149,-0.015,-0.0131,-0.0131,-0.0131,0,0.031,0.0322,0.0283,0.0293,0.0289,0.0232,0.025,0.0216,0.0164,0.0153,0.0124,0.0033,-0.0028,-0.0066,-0.0067,-0.0104,-0.0127,-0.0094,-0.0118,-0.0116,-0.0116,-0.0145,-0.0147,-0.0127,-0.0127,-0.0128,-0.0128,0,0.0357,0.0364,0.0373,0.0368,0.0359,0.0362,0.032,0.0304,0.0271,0.0235,0.0195,0.0109,0.0058,0.0024,-0.0021,-0.0046,-0.0062,-0.0102,-0.0126,-0.0107,-0.0139,-0.0143,-0.0121,-0.0123,-0.0124,-0.0125,0,0,0.0408,0.0408,0.041,0.0427,0.0401,0.0401,0.0397,0.0378,0.0386,0.0315,0.0316,0.022,0.0175,0.0137,0.0067,0.0018,-0.001,-0.0029,-0.0033,-0.0042,-0.0092,-0.0101,-0.0106,-0.0049,-0.0049,-0.005,-0.0114,0,0.0458,0.0501,0.0483,0.0523,0.0545,0.0502,0.0514,0.0487,0.0448,0.0429,0.0333,0.0303,0.0216,0.0197,0.0133,0.0032,-0.0016,0.0013,-0.0121,-0.0124,-0.0124,-0.011,-0.0081,-0.0135,-0.0118,-0.0118,-0.0119,0,0.0512,0.0536,0.0591,0.0619,0.0627,0.0643,0.0655,0.0653,0.0605,0.0573,0.0514,0.0444,0.0363,0.0285,0.013,0.0157,0.0047,-0.004,-0.0045,-0.008,-0.014,-0.0155,-0.0143,-0.0363,-0.0125,-0.0125,-0.0124,0,0.0579,0.0611,0.0664,0.0669,0.069,0.0714,0.0724,0.0703,0.0723,0.0664,0.067,0.0555,0.0515,0.036,0.0181,0.0158,0.0017,-0.0046,-0.0157,-0.0159,-0.0173,-0.0175,-0.0376,-0.0153,-0.0153,-0.0153,-0.0153,0,0.0642,0.0682,0.0702,0.0732,0.0804,0.0794,0.0857,0.0841,0.0846,0.0894,0.0754,0.0769,0.0535,0.0424,0.0235,0.0046,0.0054,-0.0133,-0.0174,-0.0144,-0.0142,-0.0367,-0.0492,-0.0155,-0.0155,-0.0154,-0.0154,0,0.0706,0.0716,0.0782,0.0823,0.084,0.0893,0.0951,0.1002,0.0985,0.1043,0.1038,0.0939,0.08,0.0561,0.0322,0.0138,-0.018,-0.0136,-0.0071,-0.0105,-0.0421,-0.054,-0.0768,-0.0852,-0.0269,-0.0269,-0.027,0,0.0743,0.0786,0.0851,0.09,0.0923,0.099,0.1054,0.1067,0.1133,0.1164,0.1216,0.1107,0.1062,0.0701,0.0353,0.0029,-0.0188,-0.0165,-0.022,-0.0423,-0.0588,-0.0679,-0.074,-0.0208,-0.0208,-0.0208,-0.0208,0,0.0816,0.0841,0.0893,0.0997,0.1072,0.1154,0.1246,0.1323,0.137,0.1429,0.1508,0.1482,0.115,0.0844,0.0388,0.0148,-0.0311,-0.0175,-0.0412,-0.0571,-0.0657,-0.0761,-0.0176,-0.0208,-0.0208,-0.0208,-0.0208,-0.0208,0.0872,0.0925,0.1001,0.1098,0.119,0.1319,0.141,0.1525,0.1657,0.1788,0.1756,0.1779,0.1315,0.0699,0.0327,-0.0316,-0.0334,-0.0509,-0.0639,-0.0713,-0.0796,-0.0195,-0.0262,-0.0262,-0.0263,-0.0263,-0.0263,0,0.0941,0.1003,0.1099,0.1219,0.1332,0.1368,0.1544,0.1654,0.1834,0.1983,0.2059,0.19,0.1298,0.0684,-0.0187,-0.0676,-0.0856,-0.0951,-0.1091,-0.1132,-0.0619,-0.0619,-0.0732,-0.0732,-0.0732,-0.0732,-0.0731,-0.0731,0.0984,0.1082,0.1129,0.1315,0.1408,0.1575,0.1687,0.1862,0.2012,0.2209,0.2288,0.2304,0.187,0.0234,-0.0891,-0.1162,-0.1484,-0.1573,-0.1747,-0.1426,-0.1395,-0.1365,-0.1396,-0.167,-0.1672,-0.218,-0.2186,-0.219]}],[{"header":{"parameterUnit":"m.s-1","parameterCategory":2,"la1":30.2991,"la2":30.254,"lo1":-89.0895,"lo2":-89.0444,"dy":0.0017,"dx":0.0017,"nx":28,"ny":28,"refTime":"2024-08-30T09:00:00:Z","depth":"2","parameterNumber":2,"parameterNumberName":"U-component_of_CURRENTS"},"data":[0,0,0,0,0,0,0,0,0,0,0,0,0,0,0,0,0,0,0,0,0,0,0,0,0,0,0,0,0,0,0,0,0,0,0,0,0,0,0,0,0,0,0,0,0,0,0,0,0,0,0,0,0,0,0,0,0,0,0.2959,0.296,0,0.3002,0.3002,0.3002,0.3008,0.3008,0.3008,0.3008,0.302,0.302,0.3021,0,0,0,0,0,0,0,0,0,0,0,0,0,0.2876,0.2878,0.2959,0.296,0.296,0.3002,0.3002,0.3002,0.3008,0.3008,0.3008,0.3008,0.302,0.302,0.3021,0,0,0,0,0,0,0,0,0,0,0,0,0,0.2912,0.2878,0.2959,0.2971,0.2973,0.3001,0.3002,0.3002,0.3008,0.3008,0.3008,0.3008,0.302,0.302,0.3021,0.3027,0,0,0.3023,0.3023,0,0,0,0,0,0,0,0,0.291,0.2914,0.2968,0.297,0.2972,0.3002,0.2978,0.301,0.3008,0.2991,0.3008,0.3008,0.3014,0.3015,0.3018,0.3028,0.3028,0.3023,0.3023,0.3023,0.3023,0,0,0,0,0,0,0,0.2907,0.2912,0.2972,0.2969,0.2972,0.2973,0.2977,0.2984,0.2999,0.2992,0.2994,0.3004,0.3014,0.3018,0.3019,0.3028,0.3023,0.3023,0.3024,0.3024,0.3102,0.3103,0,0,0,0,0,0,0.291,0.291,0.2971,0.2974,0.2944,0.2974,0.2979,0.299,0.3,0.3002,0.3004,0.3004,0.3017,0.3018,0.3019,0.3079,0.3023,0.3024,0.3024,0.31,0.3102,0.3104,0,0,0,0,0,0,0.2908,0.2915,0.2969,0.2946,0.2953,0.2976,0.2988,0.2991,0.3008,0.301,0.3011,0.302,0.3017,0.3018,0.3045,0.3078,0.3024,0.3025,0.3098,0.3101,0.3103,0.3166,0,0,0,0,0,0,0.2905,0.2914,0.2925,0.2946,0.2955,0.2999,0.2989,0.2992,0.3015,0.3016,0.3023,0.3024,0.3017,0.3044,0.3046,0.3078,0.3025,0.3096,0.3099,0.3102,0.3162,0.317,0.3178,0,0,0,0,0,0.2902,0.2916,0.2925,0.2933,0.2969,0.3001,0.3005,0.3018,0.3016,0.3031,0.3039,0.3024,0.3065,0.3046,0.3047,0.308,0.3094,0.3098,0.3102,0.3158,0.3169,0.3177,0,0,0,0,0,0,0.2882,0.2919,0.2929,0.2953,0.2983,0.3003,0.302,0.3028,0.3045,0.3048,0.3042,0.3044,0.3083,0.3073,0.3052,0.3113,0.3079,0.3083,0.3121,0.3131,0.3139,0.3152,0.3026,0,0,0,0,0,0.2885,0.2909,0.2942,0.2963,0.298,0.3003,0.3018,0.3031,0.3049,0.3057,0.3064,0.3076,0.3098,0.3107,0.3122,0.3149,0.3159,0.3173,0.3181,0.3188,0.3201,0.3246,0.3259,0.3116,0.3116,0.3116,0,0,0.2882,0.2908,0.292,0.2962,0.2984,0.3015,0.3011,0.3044,0.3071,0.3056,0.3092,0.3106,0.3114,0.3152,0.3168,0.3147,0.3235,0.3193,0.3199,0.3208,0.3251,0.3265,0.3277,0.3119,0.3118,0.3118,0,0,0.2888,0.2914,0.2936,0.2967,0.3012,0.3032,0.3046,0.3079,0.3097,0.3134,0.3138,0.3173,0.3193,0.3215,0.3225,0.3285,0.328,0.329,0.3337,0.3381,0.3393,0.3403,0.3439,0.3452,0.329,0.329,0.329,0,0.2883,0.2916,0.2948,0.2981,0.3006,0.3042,0.307,0.3101,0.3138,0.3163,0.3154,0.322,0.3226,0.3283,0.3311,0.3305,0.3326,0.3298,0.3391,0.3402,0.3412,0.3446,0.346,0.3293,0.3293,0.3293,0.3292,0,0.2905,0.2937,0.2956,0.301,0.3043,0.3076,0.3124,0.3164,0.3189,0.3217,0.3281,0.3299,0.3339,0.3351,0.3351,0.343,0.3422,0.3399,0.3365,0.343,0.3461,0.3475,0.3298,0.3297,0.3296,0.3295,0,0,0.2873,0.2954,0.296,0.2993,0.306,0.309,0.3151,0.3214,0.3263,0.3304,0.3364,0.3414,0.3432,0.3447,0.3456,0.3497,0.3589,0.3486,0.3487,0.352,0.369,0.3666,0.3678,0.3584,0.3587,0.3589,0.3686,0,0.2879,0.2937,0.2976,0.3036,0.3072,0.3131,0.3184,0.325,0.3306,0.3377,0.342,0.3479,0.3465,0.3497,0.354,0.3584,0.3627,0.3565,0.3625,0.3627,0.3596,0.3694,0.3426,0.3489,0.3699,0.3701,0.3702,0,0.2879,0.2924,0.2973,0.3059,0.308,0.3123,0.3223,0.3281,0.3391,0.3435,0.3507,0.3544,0.3631,0.36,0.3705,0.3669,0.3692,0.3713,0.3716,0.3682,0.3628,0.3458,0.3505,0.3724,0.3723,0.3721,0.372,0,0.2833,0.2919,0.2956,0.2985,0.3086,0.3127,0.3191,0.3298,0.335,0.3487,0.3535,0.3633,0.369,0.3743,0.3796,0.3762,0.3904,0.385,0.3847,0.3845,0.3624,0.3598,0.3923,0.3923,0.3923,0.3923,0.3923,0,0.2814,0.2846,0.2943,0.2964,0.3021,0.3112,0.3184,0.3269,0.3385,0.3463,0.3563,0.3642,0.3732,0.3816,0.3842,0.3905,0.394,0.3888,0.3882,0.3639,0.3615,0.3814,0.38,0.3926,0.3926,0.3925,0.3924,0,0.2747,0.2808,0.2856,0.2962,0.2994,0.304,0.3154,0.3213,0.3342,0.3451,0.3497,0.3666,0.3801,0.3873,0.3983,0.3963,0.4021,0.4024,0.3739,0.37,0.3917,0.3905,0.4034,0.4035,0.4035,0.4035,0.4035,0,0.2715,0.2735,0.2826,0.2849,0.2894,0.2974,0.3023,0.3166,0.3236,0.3464,0.3511,0.3695,0.3798,0.3958,0.3993,0.4047,0.4069,0.3804,0.3692,0.3954,0.3936,0.3923,0.3912,0.3417,0.3412,0.3408,0.3405,0,0.2651,0.2681,0.2718,0.2769,0.2817,0.2866,0.2964,0.3001,0.3193,0.3296,0.3468,0.3578,0.3781,0.3753,0.3849,0.3832,0.3777,0.3727,0.4082,0.3443,0.3384,0.3362,0.3368,0.3369,0.3373,0.3376,0.3377,0.3379,0.2592,0.2596,0.2645,0.2676,0.2723,0.2751,0.2754,0.2876,0.2966,0.3104,0.3312,0.3396,0.3513,0.3541,0.3477,0.3437,0.3678,0.3502,0.3508,0.3521,0.3445,0.3391,0.3363,0.3366,0.3369,0.3372,0.3374,0,0.2515,0.2531,0.2555,0.2579,0.257,0.2642,0.2699,0.2687,0.2746,0.2936,0.3056,0.2923,0.2958,0.3051,0.2965,0.3003,0.2908,0.2863,0.2707,0.2749,0.2786,0.2664,0.2379,0.2374,0.2371,0.2367,0,0,0.2479,0.246,0.2463,0.2413,0.243,0.2388,0.2387,0.2403,0.25,0.253,0.2579,0.2837,0.3004,0.2648,0.2641,0.2492,0.2579,0.2398,0.3216,0.3078,0.3108,0.3201,0.3071,0,0,0,0,0]},{"header":{"parameterUnit":"m.s-1","parameterCategory":2,"la1":30.2991,"la2":30.254,"lo1":-89.0895,"lo2":-89.0444,"dy":0.0017,"dx":0.0017,"nx":28,"ny":28,"refTime":"2024-08-30T09:00:00:Z","depth":"2","parameterNumber":3,"parameterNumberName":"V-component_of_CURRENTS"},"data":[0,0,0,0,0,0,0,0,0,0,0,0,0,0,0,0,0,0,0,0,0,0,0,0,0,0,0,0,0,0,0,0,0,0,0,0,0,0,0,0,0,0,0,0,0,0,0,0,0,0,0,0,0,0,0,0,0,0,0.0041,0.004,0,-0.0034,-0.0035,-0.0036,-0.0086,-0.0086,-0.0086,-0.0086,-0.0195,-0.0197,-0.02,0,0,0,0,0,0,0,0,0,0,0,0,0,0.0088,0.0088,0.0041,0.004,0.0039,-0.0034,-0.0035,-0.0036,-0.0086,-0.0086,-0.0086,-0.0086,-0.0194,-0.0197,-0.02,0,0,0,0,0,0,0,0,0,0,0,0,0,0.0045,0.0087,0.0041,0.0007,0.0003,-0.0034,-0.0035,-0.0036,-0.0086,-0.0086,-0.0086,-0.0087,-0.0193,-0.0197,-0.02,-0.0219,0,0,-0.0213,-0.0214,0,0,0,0,0,0,0,0,0.0047,0.0043,0.0013,0.0009,0.0005,-0.005,-0.0058,-0.0099,-0.0085,-0.0053,-0.0086,-0.0087,-0.0148,-0.0156,-0.017,-0.0224,-0.0228,-0.0213,-0.0216,-0.0217,-0.0218,0,0,0,0,0,0,0,0.005,0.0046,0.001,0.0012,0.0007,-0.0023,-0.0029,-0.0066,-0.0099,-0.0056,-0.006,-0.0066,-0.0151,-0.0166,-0.0173,-0.023,-0.0213,-0.0217,-0.0219,-0.0221,-0.0308,-0.0308,0,0,0,0,0,0,0.0065,0.0049,0.0012,0.0008,0.0027,-0.0023,-0.003,-0.0033,-0.0099,-0.0108,-0.0065,-0.0068,-0.0159,-0.0169,-0.0177,-0.0193,-0.0217,-0.0221,-0.0223,-0.0308,-0.0308,-0.0308,0,0,0,0,0,0,0.0067,0.0063,0.0015,0.0027,0.0019,-0.0023,-0.0026,-0.0034,-0.0049,-0.0105,-0.0116,-0.0071,-0.016,-0.0172,-0.0207,-0.0198,-0.0223,-0.0226,-0.0309,-0.0308,-0.0308,-0.023,0,0,0,0,0,0,0.0068,0.0064,0.0068,0.0029,0.0019,0.0002,-0.0026,-0.0035,-0.0051,-0.0055,-0.0113,-0.0124,-0.0161,-0.0201,-0.0211,-0.0204,-0.023,-0.0309,-0.0309,-0.0308,-0.0232,-0.0227,-0.0222,0,0,0,0,0,0.007,0.0082,0.0069,0.0064,0.0026,0.0003,-0.0004,-0.0037,-0.0051,-0.0052,-0.0094,-0.0122,-0.0207,-0.0204,-0.0216,-0.0209,-0.0309,-0.0309,-0.0308,-0.0234,-0.0228,-0.0222,0,0,0,0,0,0,0.0106,0.0077,0.0062,0.0064,0.0039,-0.0005,-0.0007,-0.0031,-0.0065,-0.0067,-0.0123,-0.0136,-0.0162,-0.0199,-0.0194,-0.0236,-0.0262,-0.0264,-0.0202,-0.0196,-0.0191,-0.0162,-0.0233,0,0,0,0,0,0.0116,0.0117,0.0081,0.0084,0.0075,0.0035,0.0022,0.0001,-0.0034,-0.0049,-0.009,-0.0134,-0.0171,-0.0193,-0.023,-0.0254,-0.0288,-0.0259,-0.0254,-0.0249,-0.0235,-0.0283,-0.0281,-0.0308,-0.0308,-0.0308,0,0,0.013,0.0115,0.0115,0.0092,0.007,0.0069,0.0026,0.0016,0.0013,-0.0056,-0.0071,-0.0116,-0.0174,-0.0198,-0.0213,-0.0228,-0.0259,-0.0249,-0.0244,-0.0232,-0.0283,-0.028,-0.0277,-0.0308,-0.0308,-0.0308,0,0,0.0166,0.0148,0.0162,0.0146,0.0122,0.0098,0.0099,0.006,0.0042,0.0018,-0.003,-0.007,-0.0125,-0.0165,-0.0192,-0.0184,-0.0229,-0.0195,-0.0148,-0.0195,-0.0193,-0.0191,-0.0227,-0.023,-0.0195,-0.0194,-0.0194,0,0.0185,0.0197,0.0162,0.0172,0.017,0.0118,0.0136,0.0107,0.0061,0.0051,0.0026,-0.0055,-0.0108,-0.014,-0.0138,-0.0171,-0.0199,-0.0164,-0.0187,-0.0186,-0.0186,-0.0223,-0.0227,-0.0191,-0.0191,-0.0191,-0.0192,0,0.0229,0.0238,0.0247,0.0244,0.0236,0.0241,0.0204,0.019,0.0161,0.0129,0.0094,0.0018,-0.0028,-0.0056,-0.0096,-0.0118,-0.0138,-0.0171,-0.0197,-0.0178,-0.0219,-0.0224,-0.0185,-0.0187,-0.0188,-0.0189,0,0,0.0275,0.0279,0.0281,0.0298,0.0277,0.0279,0.0276,0.026,0.0265,0.0204,0.0202,0.0121,0.0079,0.0045,-0.0016,-0.0062,-0.0094,-0.0106,-0.0111,-0.013,-0.0185,-0.0197,-0.0204,-0.0128,-0.0128,-0.0129,-0.0213,0,0.0321,0.0364,0.0349,0.039,0.0411,0.0372,0.0382,0.0359,0.0323,0.0305,0.0218,0.0191,0.0117,0.0099,0.0041,-0.0055,-0.0104,-0.0067,-0.021,-0.0213,-0.0217,-0.0209,-0.0172,-0.0243,-0.0218,-0.0219,-0.022,0,0.037,0.0395,0.0447,0.0477,0.0484,0.0497,0.0507,0.0508,0.0461,0.0432,0.0378,0.0314,0.0239,0.0172,0.0021,0.0052,-0.0054,-0.0137,-0.0143,-0.0181,-0.0234,-0.026,-0.0253,-0.0229,-0.0228,-0.0227,-0.0227,0,0.043,0.0464,0.0513,0.0519,0.0541,0.0559,0.0569,0.0549,0.0567,0.0512,0.0515,0.0408,0.0367,0.0223,0.0054,0.0039,-0.0109,-0.016,-0.0272,-0.0274,-0.0284,-0.0285,-0.0267,-0.0267,-0.0267,-0.0267,-0.0267,0,0.0486,0.0524,0.0544,0.0572,0.0637,0.0629,0.0685,0.0671,0.0672,0.0713,0.059,0.0595,0.0381,0.027,0.0096,-0.009,-0.0082,-0.0254,-0.0295,-0.0256,-0.0254,-0.0277,-0.0277,-0.027,-0.0269,-0.0269,-0.0268,0,0.0539,0.0551,0.0612,0.0651,0.0668,0.0715,0.0771,0.0814,0.0797,0.0845,0.0839,0.0739,0.0596,0.0376,0.0146,-0.0019,-0.0209,-0.0282,-0.0213,-0.0244,-0.0356,-0.0351,-0.0417,-0.0418,-0.0419,-0.042,-0.0421,0,0.0569,0.0607,0.0673,0.0718,0.0737,0.08,0.0856,0.0872,0.0926,0.0945,0.0985,0.0869,0.0806,0.0459,0.0146,-0.0157,-0.0204,-0.0322,-0.0357,-0.0337,-0.0371,-0.0364,-0.0358,-0.0343,-0.0343,-0.0343,-0.0343,0,0.0627,0.0649,0.0698,0.0796,0.0863,0.0943,0.1023,0.1089,0.1129,0.117,0.1219,0.1176,0.0856,0.0556,0.0135,-0.0066,-0.0273,-0.0331,-0.0331,-0.0305,-0.0273,-0.0304,-0.0299,-0.0343,-0.0343,-0.0343,-0.0343,-0.0343,0.0667,0.0714,0.0783,0.0875,0.0963,0.1079,0.116,0.1252,0.1359,0.1446,0.1404,0.1357,0.1006,0.0483,0.0106,-0.0279,-0.0269,-0.0401,-0.0399,-0.0398,-0.0368,-0.0338,-0.0415,-0.0415,-0.0415,-0.0416,-0.0416,0,0.0712,0.077,0.086,0.0971,0.1076,0.1118,0.1271,0.1355,0.1491,0.1583,0.1617,0.1317,0.0965,0.0563,-0.0013,-0.0364,-0.0389,-0.0462,-0.0423,-0.042,-0.0418,-0.0389,-0.0443,-0.0444,-0.0445,-0.0446,0,0,0.0738,0.0822,0.0868,0.1038,0.1131,0.1281,0.1378,0.1507,0.1607,0.169,0.1689,0.1624,0.1125,0.0708,0.0219,-0.0115,-0.0181,-0.0171,-0.0109,-0.0002,0.0004,-0.0341,-0.0287,0,0,0,0,0]}],[{"header":{"parameterUnit":"m.s-1","parameterCategory":2,"la1":30.2991,"la2":30.254,"lo1":-89.0895,"lo2":-89.0444,"dy":0.0017,"dx":0.0017,"nx":28,"ny":28,"refTime":"2024-08-30T09:00:00:Z","depth":"4","parameterNumber":2,"parameterNumberName":"U-component_of_CURRENTS"},"data":[0,0,0,0,0,0,0,0,0,0,0,0,0,0,0,0,0,0,0,0,0,0,0,0,0,0,0,0,0,0,0,0,0,0,0,0,0,0,0,0,0,0,0,0,0,0,0,0,0,0,0,0,0,0,0,0,0,0,0.1944,0.1946,0,0.2027,0.2027,0.2028,0.2096,0.2097,0.2098,0.2099,0.2191,0.2193,0.2194,0,0,0,0,0,0,0,0,0,0,0,0,0,0.1834,0.1836,0.1944,0.1946,0.1947,0.2027,0.2027,0.2028,0.2096,0.2097,0.2098,0.2099,0.2191,0.2193,0.2194,0,0,0,0,0,0,0,0,0,0,0,0,0,0.1893,0.1836,0.1944,0.1992,0.1997,0.2026,0.2027,0.2029,0.2096,0.2097,0.2099,0.21,0.219,0.2192,0.2195,0.218,0,0,0.2202,0.2203,0,0,0,0,0,0,0,0,0.189,0.1897,0.1984,0.1989,0.1995,0.2055,0.2023,0.2081,0.2095,0.2056,0.2099,0.2101,0.2147,0.2153,0.2162,0.2185,0.2189,0.2202,0.2203,0.2205,0.2205,0,0,0,0,0,0,0,0.1886,0.1894,0.1974,0.1985,0.1992,0.2006,0.2016,0.2034,0.2091,0.2059,0.2065,0.2078,0.215,0.2159,0.2164,0.219,0.2202,0.2204,0.2206,0.2206,0.2338,0.234,0,0,0,0,0,0,0.188,0.189,0.1972,0.1977,0.1948,0.2007,0.2018,0.2032,0.209,0.2101,0.2076,0.2081,0.2154,0.2162,0.2168,0.2273,0.2204,0.2207,0.2208,0.2335,0.2338,0.234,0,0,0,0,0,0,0.1877,0.1886,0.1969,0.1937,0.1949,0.2008,0.2023,0.2033,0.2086,0.2104,0.2115,0.2124,0.2156,0.2165,0.2226,0.2272,0.2208,0.221,0.2333,0.2336,0.2339,0.2406,0,0,0,0,0,0,0.1874,0.1885,0.1913,0.1937,0.1951,0.2014,0.2022,0.2034,0.209,0.2097,0.2147,0.2155,0.2158,0.2222,0.2228,0.2274,0.2212,0.233,0.2334,0.2338,0.2401,0.2411,0.242,0,0,0,0,0,0.1869,0.1893,0.1913,0.1925,0.1981,0.2016,0.2025,0.2068,0.2091,0.212,0.2159,0.2156,0.2251,0.2226,0.2232,0.228,0.2329,0.2333,0.2338,0.2397,0.2409,0.2419,0,0,0,0,0,0,0.1861,0.1903,0.1926,0.1964,0.2002,0.2029,0.2066,0.209,0.2143,0.2165,0.2178,0.2188,0.2261,0.226,0.2232,0.233,0.2291,0.2297,0.2334,0.2346,0.2355,0.2357,0.2214,0,0,0,0,0,0.187,0.1906,0.1941,0.1978,0.2001,0.2041,0.2069,0.21,0.2139,0.2166,0.22,0.2239,0.2276,0.2304,0.2333,0.2382,0.2386,0.2419,0.2428,0.2436,0.2444,0.2485,0.2499,0.2356,0.2356,0.2355,0,0,0.1878,0.1908,0.193,0.1981,0.2016,0.2053,0.2063,0.2119,0.2161,0.2165,0.2246,0.2275,0.2298,0.2359,0.2391,0.237,0.2482,0.2442,0.2448,0.2452,0.2492,0.2505,0.2518,0.2359,0.2358,0.2358,0,0,0.1895,0.194,0.197,0.2006,0.2068,0.2092,0.2117,0.217,0.2212,0.2278,0.2298,0.2357,0.2412,0.2438,0.2455,0.2531,0.253,0.255,0.26,0.264,0.2652,0.2662,0.2694,0.2707,0.2553,0.2554,0.2554,0,0.1906,0.1946,0.1986,0.2023,0.206,0.2113,0.2151,0.2196,0.2267,0.2305,0.2318,0.2423,0.2446,0.2514,0.255,0.2552,0.2574,0.2554,0.2651,0.2662,0.2671,0.2701,0.2714,0.2557,0.2557,0.2557,0.2556,0,0.1931,0.1981,0.2005,0.2069,0.2113,0.216,0.2218,0.2281,0.2339,0.2378,0.2475,0.2511,0.2572,0.2594,0.26,0.2686,0.268,0.2657,0.262,0.2689,0.2717,0.2729,0.2563,0.2562,0.256,0.2559,0,0,0.1905,0.2002,0.2016,0.2057,0.2145,0.2179,0.2262,0.2339,0.2404,0.2479,0.2557,0.2632,0.2665,0.2688,0.2708,0.2749,0.2841,0.2745,0.2745,0.277,0.294,0.2774,0.2771,0.2843,0.2845,0.2847,0.2934,0,0.1916,0.1987,0.2035,0.2115,0.2157,0.2235,0.2303,0.2387,0.2465,0.2556,0.2615,0.2698,0.2696,0.2746,0.2789,0.2836,0.2877,0.282,0.2874,0.2875,0.2714,0.2781,0.2855,0.2944,0.2946,0.2948,0.295,0,0.1914,0.1969,0.2042,0.2147,0.2174,0.2234,0.236,0.2431,0.2559,0.2625,0.2715,0.2765,0.2862,0.2841,0.2947,0.2918,0.2942,0.2961,0.2964,0.2792,0.2732,0.2858,0.2972,0.297,0.2969,0.2967,0.2966,0,0.1863,0.197,0.2031,0.2067,0.2191,0.2253,0.2332,0.246,0.253,0.2684,0.2751,0.2856,0.2931,0.298,0.3035,0.3009,0.3134,0.3091,0.2959,0.2948,0.304,0.3028,0.3155,0.3155,0.3155,0.3155,0.3155,0,0.1832,0.1888,0.2023,0.2056,0.2142,0.2245,0.235,0.2447,0.2586,0.2669,0.2789,0.2861,0.2975,0.3051,0.3075,0.3059,0.3167,0.2979,0.2961,0.3067,0.3057,0.3049,0.3036,0.3158,0.3157,0.3157,0.3156,0,0.1754,0.1843,0.1921,0.2067,0.2118,0.2186,0.2347,0.2415,0.2569,0.2684,0.2739,0.29,0.3003,0.3082,0.3178,0.3093,0.3104,0.3069,0.32,0.3186,0.2881,0.287,0.2917,0.2912,0.2908,0.2904,0.2901,0,0.1714,0.175,0.1908,0.1957,0.2029,0.2148,0.2219,0.2389,0.2457,0.2682,0.2716,0.2882,0.2969,0.2963,0.3068,0.3092,0.3055,0.303,0.2928,0.288,0.2859,0.2855,0.285,0.2894,0.2893,0.2892,0.2891,0,0.1635,0.1708,0.1772,0.1877,0.1964,0.2043,0.2166,0.2196,0.239,0.2547,0.2627,0.2687,0.2797,0.2861,0.2904,0.2914,0.3026,0.2984,0.2991,0.2895,0.2853,0.2835,0.2835,0.2876,0.2878,0.2879,0.288,0,0.1578,0.1601,0.1699,0.1771,0.1872,0.1912,0.1991,0.2075,0.2161,0.2397,0.2428,0.2611,0.2775,0.2773,0.282,0.2814,0.2761,0.2648,0.2672,0.269,0.2575,0.2485,0.2388,0,0,0,0,0,0.1511,0.1523,0.1585,0.1653,0.1746,0.1807,0.1939,0.2021,0.2203,0.2195,0.2301,0.2395,0.2471,0.2571,0.2519,0.2727,0.2774,0.2654,0.2657,0.2793,0.281,0.2695,0,0,0,0,0,0,0.1465,0.1519,0.1539,0.1538,0.1563,0.1648,0.1726,0.185,0.1851,0.2046,0.2098,0.2249,0.2357,0.2476,0.2474,0.2502,0.2454,0.2772,0.2765,0.2783,0.2799,0.2813,0.2701,0,0,0,0,0]},{"header":{"parameterUnit":"m.s-1","parameterCategory":2,"la1":30.2991,"la2":30.254,"lo1":-89.0895,"lo2":-89.0444,"dy":0.0017,"dx":0.0017,"nx":28,"ny":28,"refTime":"2024-08-30T09:00:00:Z","depth":"4","parameterNumber":3,"parameterNumberName":"V-component_of_CURRENTS"},"data":[0,0,0,0,0,0,0,0,0,0,0,0,0,0,0,0,0,0,0,0,0,0,0,0,0,0,0,0,0,0,0,0,0,0,0,0,0,0,0,0,0,0,0,0,0,0,0,0,0,0,0,0,0,0,0,0,0,0,0.0045,0.0045,0,-0.0007,-0.0008,-0.0008,-0.0046,-0.0046,-0.0046,-0.0046,-0.0131,-0.0133,-0.0135,0,0,0,0,0,0,0,0,0,0,0,0,0,0.0075,0.0074,0.0045,0.0045,0.0044,-0.0007,-0.0008,-0.0008,-0.0046,-0.0046,-0.0046,-0.0046,-0.013,-0.0133,-0.0135,0,0,0,0,0,0,0,0,0,0,0,0,0,0.0046,0.0074,0.0045,0.002,0.0017,-0.0007,-0.0008,-0.0009,-0.0045,-0.0046,-0.0046,-0.0046,-0.013,-0.0133,-0.0136,-0.0147,0,0,-0.0145,-0.0146,0,0,0,0,0,0,0,0,0.0047,0.0044,0.0024,0.0022,0.0019,-0.0019,-0.0028,-0.0056,-0.0045,-0.0022,-0.0046,-0.0047,-0.0096,-0.0102,-0.0111,-0.0151,-0.0155,-0.0145,-0.0147,-0.0148,-0.0149,0,0,0,0,0,0,0,0.0049,0.0046,0.0024,0.0024,0.002,-0.0002,-0.0006,-0.0034,-0.0058,-0.0024,-0.0027,-0.0032,-0.0098,-0.0108,-0.0114,-0.0156,-0.0145,-0.0148,-0.015,-0.0151,-0.0216,-0.0216,0,0,0,0,0,0,0.006,0.0048,0.0025,0.0022,0.0033,-0.0002,-0.0007,-0.0007,-0.0057,-0.0064,-0.0031,-0.0033,-0.0103,-0.011,-0.0117,-0.0127,-0.0148,-0.0151,-0.0153,-0.0216,-0.0216,-0.0216,0,0,0,0,0,0,0.0061,0.0058,0.0028,0.0034,0.0029,-0.0002,-0.0003,-0.0008,-0.0019,-0.0062,-0.007,-0.0036,-0.0104,-0.0113,-0.0139,-0.0131,-0.0153,-0.0155,-0.0216,-0.0216,-0.0216,-0.0151,0,0,0,0,0,0,0.0062,0.0059,0.0063,0.0035,0.0029,0.002,-0.0002,-0.0009,-0.0021,-0.0024,-0.0068,-0.0076,-0.0105,-0.0134,-0.0142,-0.0135,-0.0158,-0.0217,-0.0216,-0.0216,-0.0153,-0.0149,-0.0145,0,0,0,0,0,0.0063,0.0073,0.0063,0.006,0.0035,0.002,0.0015,-0.0009,-0.0021,-0.0021,-0.0052,-0.0075,-0.0139,-0.0137,-0.0146,-0.014,-0.0217,-0.0216,-0.0216,-0.0155,-0.0149,-0.0145,0,0,0,0,0,0,0.0088,0.0069,0.0058,0.0062,0.0044,0.0014,0.0013,-0.0005,-0.003,-0.0032,-0.0075,-0.0085,-0.0104,-0.0133,-0.0129,-0.0159,-0.0181,-0.0183,-0.0132,-0.0127,-0.0123,-0.0102,-0.016,0,0,0,0,0,0.0096,0.0098,0.0074,0.0077,0.0071,0.0042,0.0033,0.0018,-0.0007,-0.0018,-0.005,-0.0083,-0.011,-0.0127,-0.0155,-0.0172,-0.0203,-0.0174,-0.017,-0.0166,-0.0156,-0.0201,-0.0199,-0.0215,-0.0215,-0.0215,0,0,0.0106,0.0097,0.0098,0.0083,0.0068,0.0069,0.0036,0.003,0.003,-0.0024,-0.0034,-0.0069,-0.0112,-0.0128,-0.014,-0.0151,-0.0179,-0.0166,-0.0162,-0.0154,-0.02,-0.0198,-0.0197,-0.0215,-0.0215,-0.0215,0,0,0.0134,0.0122,0.0134,0.0124,0.0108,0.0092,0.0093,0.0065,0.0052,0.0036,-0.0001,-0.0031,-0.0072,-0.0101,-0.0121,-0.0112,-0.0154,-0.0121,-0.0083,-0.0126,-0.0125,-0.0124,-0.0161,-0.0164,-0.012,-0.012,-0.012,0,0.0148,0.016,0.0135,0.0144,0.0144,0.0107,0.0122,0.0102,0.007,0.0062,0.0043,-0.0018,-0.0058,-0.008,-0.0077,-0.0101,-0.013,-0.0097,-0.0119,-0.0119,-0.012,-0.0158,-0.0163,-0.0116,-0.0117,-0.0117,-0.0117,0,0.0182,0.0192,0.0199,0.0201,0.0198,0.0204,0.0179,0.0169,0.0147,0.0125,0.0098,0.0042,0.0007,-0.0013,-0.0042,-0.0062,-0.0082,-0.0107,-0.0128,-0.0114,-0.0156,-0.0161,-0.0112,-0.0113,-0.0114,-0.0115,0,0,0.0212,0.0223,0.0225,0.0241,0.023,0.0233,0.0234,0.0225,0.0229,0.0185,0.0182,0.0125,0.0092,0.0066,0.002,-0.0019,-0.0052,-0.0056,-0.006,-0.0085,-0.0141,-0.0143,-0.015,-0.0079,-0.008,-0.008,-0.0168,0,0.0247,0.0283,0.0277,0.0314,0.0332,0.0307,0.0317,0.0302,0.0276,0.0261,0.0196,0.0176,0.0122,0.0108,0.006,-0.0021,-0.0063,-0.0025,-0.0158,-0.0162,-0.0159,-0.0155,-0.0082,-0.0172,-0.0174,-0.0175,-0.0176,0,0.0281,0.0304,0.0348,0.038,0.0386,0.0402,0.0412,0.0415,0.038,0.0359,0.0318,0.0267,0.0207,0.0157,0.0028,0.0057,-0.0032,-0.0101,-0.0106,-0.0132,-0.0174,-0.0193,-0.0186,-0.0186,-0.0185,-0.0184,-0.0183,0,0.0318,0.0354,0.0395,0.0403,0.0429,0.0446,0.046,0.0446,0.0461,0.042,0.0421,0.0335,0.0299,0.018,0.0039,0.0033,-0.0107,-0.0139,-0.0226,-0.0228,-0.0229,-0.0229,-0.0233,-0.0233,-0.0232,-0.0232,-0.0232,0,0.0353,0.0387,0.0417,0.044,0.0496,0.0497,0.0545,0.0537,0.054,0.0568,0.0479,0.0472,0.0304,0.0204,0.0064,-0.0091,-0.0093,-0.0214,-0.0249,-0.02,-0.0196,-0.0233,-0.0232,-0.0235,-0.0235,-0.0234,-0.0234,0,0.0379,0.0398,0.0452,0.0496,0.0515,0.0554,0.0613,0.0644,0.0637,0.0667,0.0663,0.0574,0.0442,0.0267,0.007,-0.0047,-0.0204,-0.0263,-0.0186,-0.0216,-0.0305,-0.0299,-0.0366,-0.0367,-0.0368,-0.0368,-0.0369,0,0.0393,0.0424,0.0494,0.0535,0.0558,0.0616,0.0664,0.0688,0.0724,0.0733,0.075,0.0645,0.0561,0.0294,0.0092,-0.0176,-0.022,-0.0303,-0.0314,-0.029,-0.0318,-0.0311,-0.0305,-0.037,-0.037,-0.037,-0.037,0,0.0419,0.0445,0.0489,0.0577,0.0638,0.071,0.0776,0.0813,0.0846,0.0846,0.0831,0.0694,0.0542,0.0314,0.0104,-0.0091,-0.0249,-0.0311,-0.0311,-0.0323,-0.0296,-0.032,-0.0314,-0.0372,-0.0372,-0.0372,-0.0372,0,0.0436,0.047,0.0533,0.0609,0.0696,0.0779,0.0813,0.0861,0.09,0.0909,0.0903,0.074,0.0645,0.0357,0.0166,-0.0028,-0.0088,-0.0155,-0.0165,-0.0165,-0.0088,-0.0023,-0.0039,0,0,0,0,0,0.0446,0.0487,0.0561,0.0647,0.0738,0.0792,0.0879,0.0905,0.094,0.0946,0.093,0.0792,0.052,0.0399,0.0205,0.0123,-0.0143,-0.0114,-0.023,-0.0385,-0.0382,-0.0327,0,0,0,0,0,0,0.0451,0.0516,0.0555,0.0667,0.0734,0.0837,0.09,0.0927,0.0925,0.0934,0.0794,0.0737,0.0465,0.0633,0.02,0.014,0.0039,-0.0241,-0.0245,-0.0386,-0.0384,-0.0382,-0.0324,0,0,0,0,0]}]]